Weather History for KASE - June, 2013

Change the Weather History Date:

Saturday, June 15, 2013

  Actual Average Record
Temperature  
Mean Temperature 57 °F 57 °F  
Max Temperature 77 °F 74 °F 83 °F (2012)
Min Temperature 37 °F 41 °F 22 °F (1981)
Degree Days  
Heating Degree Days 8 8  
Month to date heating degree days 92 149  
Since 1 June heating degree days 92 149  
Since 1 July heating degree days 8533 8794  
Cooling Degree Days 0 0  
Month to date cooling degree days 4 0  
Year to date cooling degree days 4 0  
Since 1 June cooling degree days 4 0  
Growing Degree Days 7 (Base 50)    
Moisture  
Dew Point 25 °F    
Average Humidity 31    
Maximum Humidity 49    
Minimum Humidity 13    
Precipitation  
Precipitation T in 0.04 in 0.23 in (1999)
Month to date precipitation 0.02 0.57  
Year to date precipitation 6.70 7.51  
Sea Level Pressure  
Sea Level Pressure 29.89 in    
Wind  
Wind Speed 7 mph (WSW)    
Max Wind Speed 20 mph    
Max Gust Speed 37 mph    
Visibility 10 miles    
Events      
T = Trace of Precipitation, MM = Missing Value Source: NWS Daily Summary

Daily Weather History Graph

Daily Weather History Graph

Search for Another Location

Airport or City:

Trip Planner

Search our weather history database for the weather conditions in past years. The results will help you decide how hot, cold, wet, or windy it might be!

Date:

Astronomy

Jun. 15, 2013 Rise Set
Actual Time 5:40 AM MDT 8:35 PM MDT
Civil Twilight 5:08 AM MDT 9:07 PM MDT
Nautical Twilight 4:27 AM MDT 9:48 PM MDT
Astronomical Twilight 3:40 AM MDT 10:35 PM MDT
Moon 12:15 PM MDT (6/15) 12:14 AM MDT (6/15)
Length of Visible Light 15h 59m
Length of Day
14h 55m
Waxing Crescent, 40% of the Moon is Illuminated
Jun 15
Waxing Crescent
Jun 16
First Quarter
Jun 23
Full
Jun 29
Last Quarter
Jul 8
New

Hourly Weather History & Observations

Time (MDT) Temp. Windchill Dew Point Humidity Pressure Visibility Wind Dir Wind Speed Gust Speed Precip Events Conditions
12:53 AM 50.0 °F - 21.9 °F 33% 29.83 in 10.0 mi SSW 9.2 mph - N/A   Clear
1:53 AM 46.9 °F - 21.9 °F 37% 29.83 in 10.0 mi SSW 11.5 mph - N/A   Clear
2:53 AM 46.0 °F 40.6 °F 21.9 °F 39% 29.83 in 10.0 mi SW 11.5 mph - N/A   Clear
3:53 AM 42.1 °F 37.7 °F 21.9 °F 45% 29.86 in 10.0 mi SW 6.9 mph - N/A   Clear
4:53 AM 41.0 °F 35.8 °F 21.9 °F 47% 29.89 in 10.0 mi South 8.1 mph - N/A   Clear
5:53 AM 39.9 °F 35.1 °F 21.9 °F 49% 29.89 in 6.0 mi SW 6.9 mph - N/A   Haze
6:53 AM 44.1 °F 42.5 °F 26.1 °F 49% 29.90 in 10.0 mi SSE 3.5 mph - N/A   Clear
7:53 AM 50.0 °F - 25.0 °F 38% 29.93 in 10.0 mi Calm Calm - N/A   Clear
8:53 AM 57.0 °F - 23.0 °F 27% 29.91 in 10.0 mi Calm Calm - N/A   Clear
9:53 AM 64.0 °F - 21.0 °F 19% 29.90 in 10.0 mi Calm Calm - N/A   Clear
10:53 AM 68.0 °F - 28.9 °F 23% 29.88 in 10.0 mi NNW 4.6 mph - N/A   Partly Cloudy
11:53 AM 73.0 °F - 19.9 °F 14% 29.90 in 10.0 mi West 16.1 mph 26.5 mph N/A   Scattered Clouds
12:53 PM 75.9 °F - 21.0 °F 13% 29.87 in 10.0 mi Variable 6.9 mph - N/A   Scattered Clouds
1:53 PM 75.9 °F - 24.1 °F 15% 29.87 in 10.0 mi North 9.2 mph - N/A   Scattered Clouds
2:53 PM 75.9 °F - 24.1 °F 15% 29.86 in 10.0 mi North 10.4 mph - N/A   Partly Cloudy
3:53 PM 75.0 °F - 24.1 °F 15% 29.88 in 10.0 mi NNW 15.0 mph 21.9 mph N/A   Scattered Clouds
4:53 PM 73.0 °F - 26.1 °F 17% 29.89 in 10.0 mi NNW 8.1 mph - N/A   Scattered Clouds
5:53 PM 72.0 °F - 25.0 °F 17% 29.89 in 10.0 mi WSW 8.1 mph - 0.00 in   Partly Cloudy
6:53 PM 70.0 °F - 27.0 °F 20% 29.89 in 10.0 mi WSW 3.5 mph - N/A   Partly Cloudy
7:53 PM 66.0 °F - 28.0 °F 24% 29.93 in 10.0 mi WNW 13.8 mph 21.9 mph N/A   Partly Cloudy
8:53 PM 64.0 °F - 28.9 °F 27% 29.91 in 10.0 mi ENE 6.9 mph - N/A   Partly Cloudy
9:53 PM 53.1 °F - 34.0 °F 48% 29.94 in 10.0 mi Calm Calm - N/A   Partly Cloudy
10:53 PM 53.1 °F - 33.1 °F 47% 29.94 in 10.0 mi SW 5.8 mph - N/A   Clear
11:53 PM 53.1 °F - 32.0 °F 45% 29.93 in 10.0 mi SW 3.5 mph - N/A   Clear